KAL921 RKSI-LPPT

Flight info

Callsign KAL921
Flight time N/A
Altitude 26000
Route NOPIK2A NOPIK Y697 ANSIM/N0497F280 Y697 AGAVO/K0826S0660 A591 IKEKA W4 FZ/K0915S0840 W4 HCH W200 DOVIV W55 PAMRU W34 LADIX B339 ASILA A575 UPREK DCT NUKTI/K0917S0920 B215 FKG A368 SARIN/K0928F300 N161 AMASO/K0913F320 N161 GASBI/N0492F320 N161 LEYLA N644 ADEKI DCT BADIR DCT LAGAS DCT NOLGA UG261 TBN UM11 CRM UM688 EKSUK/N0490F340 UL852 NEGEM DCT LUKOV DCT RESLA DCT DOLAP DCT NILKU DCT VELUG/N0486F350 DCT OLBEK DCT EPIKU/N0488F340 DCT GINOX DCT KIFMI DCT ELVOP DCT MUREN DCT CHELY DCT VERSO/N0486F350 M601 BCN DCT ANTON DCT XIKEN DCT OSLAP DCT SALAS DCT RAMON DCT NEXAS DCT DISVU DCT ADUXO DCT CJN DCT PALIO DCT AKOKI DCT GOTOR DCT TLD DCT NATPA DCT MELON DCT CCS DCT UPULO
Aircraft B77W/H-SDE1E2E3FGHIJ2J3J4J5M1RWXY/LB1D1

Departure

Time 2026-05-01 13:20
Airport Incheon International Airport (RKSI)

Arrival

Time N/A
Airport Lisbon Humberto Delgado Airport (LPPT)
Time Latitude Longitude Altitude Speed Heading
2026-05-01 12:34 37.46186 126.43263 36 ft 0 kts 55°
2026-05-01 13:08 37.46186 126.43262 37 ft 0 kts 55°
2026-05-01 13:08 37.46179 126.43251 37 ft 2 kts 48°
2026-05-01 13:09 37.46169 126.43235 36 ft 2 kts 60°
2026-05-01 13:09 37.46162 126.43216 34 ft 2 kts 77°
2026-05-01 13:09 37.46160 126.43195 34 ft 2 kts 89°
2026-05-01 13:09 37.46161 126.43173 33 ft 2 kts 105°
2026-05-01 13:10 37.46168 126.43155 34 ft 2 kts 129°
2026-05-01 13:10 37.46172 126.43149 34 ft 0 kts 140°
2026-05-01 13:12 37.46171 126.43150 34 ft 2 kts 140°
2026-05-01 13:12 37.46110 126.43206 37 ft 16 kts 143°
2026-05-01 13:13 37.46023 126.43274 37 ft 10 kts 162°
2026-05-01 13:13 37.45960 126.43243 37 ft 10 kts 213°
2026-05-01 13:13 37.45895 126.43225 37 ft 10 kts 168°
2026-05-01 13:13 37.45833 126.43270 37 ft 10 kts 149°
2026-05-01 13:14 37.45772 126.43318 37 ft 10 kts 146°
2026-05-01 13:14 37.45711 126.43371 37 ft 14 kts 145°
2026-05-01 13:14 37.45596 126.43471 37 ft 22 kts 145°
2026-05-01 13:14 37.45470 126.43580 37 ft 22 kts 145°
2026-05-01 13:15 37.45343 126.43690 37 ft 22 kts 143°
2026-05-01 13:15 37.45220 126.43806 37 ft 22 kts 143°
2026-05-01 13:15 37.45094 126.43918 37 ft 22 kts 146°
2026-05-01 13:15 37.44969 126.44031 37 ft 22 kts 143°
2026-05-01 13:16 37.44844 126.44144 37 ft 22 kts 144°
2026-05-01 13:16 37.44719 126.44255 37 ft 22 kts 147°
2026-05-01 13:16 37.44662 126.44304 37 ft 1 kts 145°
2026-05-01 13:17 37.44589 126.44368 37 ft 12 kts 145°
2026-05-01 13:17 37.44545 126.44404 37 ft 12 kts 156°
2026-05-01 13:18 37.44422 126.44296 36 ft 12 kts 235°
2026-05-01 13:18 37.44377 126.44214 35 ft 12 kts 238°
2026-05-01 13:18 37.44391 126.44125 35 ft 10 kts 324°
2026-05-01 13:18 37.44396 126.44121 35 ft 4 kts 324°
2026-05-01 13:19 37.44586 126.43951 37 ft 70 kts 326°
2026-05-01 13:19 37.45193 126.43416 35 ft 141 kts 324°
2026-05-01 13:19 37.47346 126.41482 469 ft 207 kts 322°
2026-05-01 13:20 37.48538 126.40404 1081 ft 209 kts 320°
2026-05-01 13:20 37.49459 126.39140 1974 ft 198 kts 304°
2026-05-01 13:20 37.50281 126.37636 2145 ft 219 kts 300°
2026-05-01 13:21 37.50406 126.33806 2708 ft 236 kts 268°
2026-05-01 13:21 37.50460 126.31708 3000 ft 247 kts 277°
2026-05-01 13:21 37.50584 126.29491 3431 ft 257 kts 273°
2026-05-01 13:21 37.50592 126.29214 3489 ft 258 kts 273°
2026-05-01 13:22 37.50633 126.27091 4051 ft 262 kts 272°
2026-05-01 13:22 37.50671 126.25095 4620 ft 264 kts 272°
2026-05-01 13:22 37.50721 126.22772 5267 ft 266 kts 273°
2026-05-01 13:22 37.50773 126.20439 5985 ft 265 kts 274°
2026-05-01 13:23 37.50649 126.18126 6521 ft 268 kts 255°
2026-05-01 13:23 37.49678 126.16016 6905 ft 279 kts 236°
2026-05-01 13:23 37.48528 126.14032 7328 ft 282 kts 241°
2026-05-01 13:23 37.47476 126.11978 7925 ft 283 kts 242°
2026-05-01 13:24 37.46404 126.09867 8530 ft 285 kts 242°
2026-05-01 13:24 37.45321 126.07763 9098 ft 289 kts 241°
2026-05-01 13:24 37.44212 126.05633 9669 ft 292 kts 241°
2026-05-01 13:25 37.41925 126.01266 10360 ft 314 kts 241°
2026-05-01 13:25 37.40850 125.98861 10465 ft 321 kts 255°
2026-05-01 13:25 37.40596 125.96325 10566 ft 325 kts 276°
2026-05-01 13:25 37.40741 125.93420 10662 ft 339 kts 273°
2026-05-01 13:26 37.40728 125.90400 10986 ft 353 kts 271°
2026-05-01 13:26 37.40657 125.87273 11469 ft 360 kts 270°
2026-05-01 13:26 37.40586 125.84110 12113 ft 363 kts 270°
2026-05-01 13:26 37.40526 125.80942 12795 ft 365 kts 271°
2026-05-01 13:27 37.40476 125.77727 13448 ft 369 kts 271°
2026-05-01 13:27 37.40430 125.74485 14036 ft 373 kts 271°
2026-05-01 13:27 37.40340 125.67913 15273 ft 377 kts 271°
2026-05-01 13:28 37.40249 125.61268 16470 ft 382 kts 271°
2026-05-01 13:28 37.40205 125.57937 17046 ft 385 kts 271°
2026-05-01 13:29 37.39885 125.51152 18193 ft 393 kts 262°
2026-05-01 13:29 37.38812 125.44364 19207 ft 398 kts 262°
2026-05-01 13:30 37.36748 125.30528 21174 ft 407 kts 263°
2026-05-01 13:31 37.35706 125.23482 22117 ft 412 kts 263°
2026-05-01 13:31 37.34106 125.12726 23454 ft 419 kts 263°
2026-05-01 13:32 37.33029 125.05533 24245 ft 422 kts 263°
2026-05-01 13:33 37.31385 124.94615 25531 ft 422 kts 263°
2026-05-01 13:33 37.30286 124.87353 26295 ft 424 kts 263°
2026-05-01 13:34 37.29185 124.80104 27033 ft 426 kts 263°
2026-05-01 13:34 37.28061 124.72735 27743 ft 427 kts 263°
2026-05-01 13:35 37.26946 124.65461 28386 ft 429 kts 263°
2026-05-01 13:35 37.26371 124.61724 28685 ft 430 kts 263°
2026-05-01 13:35 37.25238 124.54375 29244 ft 432 kts 263°
2026-05-01 13:36 37.24666 124.50681 29520 ft 432 kts 263°
2026-05-01 13:36 37.24090 124.46968 29759 ft 433 kts 263°
2026-05-01 13:36 37.22927 124.39484 29930 ft 438 kts 263°
2026-05-01 13:37 37.21757 124.31995 29954 ft 442 kts 263°
2026-05-01 13:37 37.20554 124.24334 29968 ft 446 kts 263°
2026-05-01 13:38 37.18737 124.12816 29962 ft 450 kts 263°
2026-05-01 13:39 37.17434 124.05112 29957 ft 454 kts 258°
2026-05-01 13:39 37.15935 123.97532 29985 ft 444 kts 268°
2026-05-01 13:40 37.15838 123.89800 30054 ft 443 kts 274°
2026-05-01 13:40 37.16034 123.82067 30063 ft 444 kts 274°
2026-05-01 13:41 37.16196 123.74320 30063 ft 443 kts 273°
2026-05-01 13:41 37.16353 123.66593 30057 ft 441 kts 273°
2026-05-01 13:42 37.16505 123.58944 30062 ft 442 kts 273°
2026-05-01 13:42 37.16654 123.51213 30059 ft 443 kts 273°
2026-05-01 13:43 37.16799 123.43466 30062 ft 444 kts 273°
2026-05-01 13:43 37.16938 123.35722 30064 ft 444 kts 273°
2026-05-01 13:44 37.17072 123.27966 30065 ft 444 kts 272°
2026-05-01 13:44 37.17202 123.20209 30062 ft 445 kts 272°
2026-05-01 13:45 37.17326 123.12462 30070 ft 445 kts 272°
2026-05-01 13:45 37.17445 123.04726 30070 ft 445 kts 272°
2026-05-01 13:46 37.17560 122.96958 30057 ft 446 kts 272°
2026-05-01 13:46 37.17669 122.89192 30074 ft 446 kts 272°
2026-05-01 13:47 37.17757 122.82657 30068 ft 446 kts 272°
2026-05-01 13:47 37.17857 122.74895 30068 ft 448 kts 272°
2026-05-01 13:48 37.17953 122.67060 30068 ft 448 kts 272°
2026-05-01 13:48 37.18043 122.59232 30065 ft 448 kts 272°
2026-05-01 13:49 37.18129 122.51402 30061 ft 449 kts 272°
2026-05-01 13:49 37.18209 122.43590 30058 ft 449 kts 272°
2026-05-01 13:50 37.18285 122.35784 30057 ft 449 kts 272°
2026-05-01 13:50 37.18377 122.27918 30059 ft 449 kts 274°
2026-05-01 13:51 37.19228 122.20222 30068 ft 449 kts 281°
2026-05-01 13:51 37.20915 122.12656 30073 ft 451 kts 287°
2026-05-01 13:52 37.22894 122.05185 30060 ft 451 kts 287°
2026-05-01 13:52 37.24845 121.97698 30059 ft 451 kts 287°
2026-05-01 13:53 37.26783 121.90201 30057 ft 450 kts 287°
2026-05-01 13:53 37.29667 121.78995 30056 ft 451 kts 287°
2026-05-01 13:54 37.31590 121.71502 30055 ft 451 kts 287°
2026-05-01 13:54 37.33508 121.64004 30056 ft 451 kts 286°
2026-05-01 13:55 37.35418 121.56513 30061 ft 451 kts 286°
2026-05-01 13:55 37.37346 121.48934 30056 ft 452 kts 286°
2026-05-01 13:56 37.39242 121.41453 30052 ft 452 kts 286°
2026-05-01 13:56 37.41149 121.33906 30051 ft 453 kts 286°
2026-05-01 13:57 37.43051 121.26359 30058 ft 453 kts 286°
2026-05-01 13:57 37.44949 121.18816 30052 ft 453 kts 287°
2026-05-01 13:58 37.47233 121.11387 30057 ft 454 kts 290°
2026-05-01 13:58 37.49594 121.04019 30049 ft 454 kts 290°
2026-05-01 13:59 37.51941 120.96611 30051 ft 454 kts 290°
2026-05-01 13:59 37.54270 120.89241 30045 ft 455 kts 290°
2026-05-01 14:00 37.56610 120.81825 30048 ft 455 kts 290°
2026-05-01 14:00 37.58951 120.74400 30038 ft 456 kts 290°
2026-05-01 14:01 37.61434 120.66856 30040 ft 456 kts 291°
2026-05-01 14:01 37.63888 120.59430 30034 ft 456 kts 290°
2026-05-01 14:02 37.66487 120.52179 30036 ft 459 kts 297°
2026-05-01 14:02 37.69745 120.45236 30041 ft 459 kts 297°
2026-05-01 14:03 37.72957 120.38207 30033 ft 459 kts 297°
2026-05-01 14:03 37.76115 120.31241 30038 ft 459 kts 297°
2026-05-01 14:04 37.79276 120.24266 30041 ft 460 kts 297°
2026-05-01 14:04 37.81959 120.18341 30038 ft 460 kts 297°
2026-05-01 14:05 37.85656 120.10163 30041 ft 460 kts 297°
2026-05-01 14:05 37.88825 120.03137 30037 ft 460 kts 297°
2026-05-01 14:06 37.91989 119.96106 30030 ft 460 kts 297°
2026-05-01 14:06 37.95163 119.89037 30023 ft 461 kts 297°
2026-05-01 14:07 37.98313 119.82006 30049 ft 461 kts 297°
2026-05-01 14:08 38.03079 119.71338 30038 ft 461 kts 296°
2026-05-01 14:08 38.06217 119.64294 30040 ft 461 kts 296°
2026-05-01 14:09 38.09378 119.57185 30037 ft 461 kts 296°
2026-05-01 14:09 38.12274 119.49922 30038 ft 459 kts 290°
2026-05-01 14:10 38.14661 119.42365 30033 ft 460 kts 290°
2026-05-01 14:10 38.17094 119.34902 30037 ft 460 kts 290°
2026-05-01 14:11 38.19562 119.27335 30033 ft 460 kts 290°
2026-05-01 14:11 38.23210 119.16083 30037 ft 460 kts 290°
2026-05-01 14:12 38.25642 119.08547 30039 ft 461 kts 290°
2026-05-01 14:12 38.28073 119.00996 30041 ft 461 kts 290°
2026-05-01 14:13 38.30098 118.94691 30032 ft 461 kts 290°
2026-05-01 14:13 38.32923 118.85867 30035 ft 461 kts 290°
2026-05-01 14:14 38.35336 118.78316 30034 ft 462 kts 290°
2026-05-01 14:14 38.37753 118.70725 30029 ft 462 kts 290°
2026-05-01 14:15 38.40160 118.63134 30030 ft 462 kts 290°
2026-05-01 14:15 38.42562 118.55541 30030 ft 462 kts 289°
2026-05-01 14:16 38.44966 118.47921 30027 ft 462 kts 289°
2026-05-01 14:16 38.47363 118.40307 30027 ft 462 kts 289°
2026-05-01 14:17 38.49764 118.32686 30025 ft 463 kts 289°
2026-05-01 14:17 38.52177 118.25022 30025 ft 463 kts 289°
2026-05-01 14:18 38.54576 118.17379 30021 ft 463 kts 289°
2026-05-01 14:18 38.56559 118.11047 30020 ft 462 kts 289°
2026-05-01 14:19 38.59521 118.03685 30024 ft 467 kts 300°
2026-05-01 14:19 38.63405 117.97037 30022 ft 474 kts 308°
2026-05-01 14:20 38.70343 117.87882 30022 ft 476 kts 309°
2026-05-01 14:21 38.74954 117.81766 30016 ft 475 kts 309°
2026-05-01 14:21 38.79527 117.75651 30018 ft 475 kts 309°
2026-05-01 14:22 38.86385 117.66446 30018 ft 475 kts 309°
2026-05-01 14:22 38.90915 117.60355 30014 ft 475 kts 309°
2026-05-01 14:23 38.95494 117.54184 30012 ft 475 kts 309°
2026-05-01 14:23 39.00061 117.48017 30012 ft 475 kts 308°
2026-05-01 14:24 39.04541 117.41870 30011 ft 472 kts 304°
2026-05-01 14:24 39.07757 117.34644 30021 ft 462 kts 289°
2026-05-01 14:25 39.09397 117.26726 30019 ft 459 kts 276°
2026-05-01 14:25 39.10362 117.18590 30011 ft 460 kts 278°
2026-05-01 14:26 39.12648 117.06572 30011 ft 464 kts 297°
2026-05-01 14:26 39.14622 117.03289 30004 ft 475 kts 310°
2026-05-01 14:27 39.17172 117.00537 30016 ft 484 kts 319°
2026-05-01 14:27 39.23340 116.96637 29985 ft 507 kts 342°
2026-05-01 14:28 39.33908 116.94766 29996 ft 511 kts 345°
2026-05-01 14:28 39.40934 116.93455 30003 ft 510 kts 344°
2026-05-01 14:29 39.47940 116.92023 30000 ft 509 kts 344°
2026-05-01 14:30 39.61934 116.89119 30004 ft 509 kts 344°
2026-05-01 14:31 39.72372 116.86961 30007 ft 508 kts 343°
2026-05-01 14:31 39.79351 116.85515 29997 ft 508 kts 343°
2026-05-01 14:32 39.86359 116.84100 30009 ft 508 kts 344°
2026-05-01 14:32 39.93337 116.82727 30014 ft 508 kts 344°
2026-05-01 14:33 40.00328 116.81344 30015 ft 508 kts 344°
2026-05-01 14:33 40.07302 116.79953 30016 ft 508 kts 344°
2026-05-01 14:34 40.14311 116.78551 30015 ft 507 kts 343°
2026-05-01 14:34 40.21292 116.77153 30017 ft 507 kts 343°
2026-05-01 14:35 40.28262 116.75753 30018 ft 507 kts 343°
2026-05-01 14:35 40.35149 116.74078 30018 ft 499 kts 336°
2026-05-01 14:36 40.41756 116.71331 30013 ft 496 kts 335°
2026-05-01 14:36 40.48321 116.68634 30023 ft 496 kts 335°
2026-05-01 14:37 40.54922 116.65969 30024 ft 496 kts 335°
2026-05-01 14:37 40.61521 116.63310 30021 ft 494 kts 335°
2026-05-01 14:38 40.68109 116.60638 30013 ft 494 kts 335°
2026-05-01 14:38 40.74689 116.57976 30013 ft 496 kts 336°
2026-05-01 14:39 40.81514 116.56205 30017 ft 508 kts 347°
2026-05-01 14:39 40.88603 116.55640 30019 ft 509 kts 348°
2026-05-01 14:40 40.95646 116.55023 30031 ft 507 kts 348°
2026-05-01 14:40 41.02686 116.54352 30022 ft 507 kts 348°
2026-05-01 14:41 41.09709 116.53682 30021 ft 506 kts 348°
2026-05-01 14:41 41.16750 116.53011 30022 ft 505 kts 348°
2026-05-01 14:42 41.23579 116.51565 30024 ft 489 kts 335°
2026-05-01 14:42 41.29761 116.48093 30019 ft 475 kts 322°
2026-05-01 14:43 41.35376 116.43529 30028 ft 473 kts 322°
2026-05-01 14:43 41.41034 116.39023 30027 ft 473 kts 322°
2026-05-01 14:44 41.46695 116.34543 30026 ft 473 kts 322°
2026-05-01 14:44 41.55174 116.27819 30035 ft 474 kts 322°
2026-05-01 14:45 41.63675 116.21052 30029 ft 473 kts 322°
2026-05-01 14:46 41.69323 116.16544 30043 ft 473 kts 322°
2026-05-01 14:46 41.77807 116.09754 30047 ft 473 kts 322°
2026-05-01 14:47 41.83450 116.05225 30045 ft 472 kts 322°
2026-05-01 14:48 41.91889 115.98360 30050 ft 468 kts 318°
2026-05-01 14:48 41.98397 115.89100 30055 ft 451 kts 299°
2026-05-01 14:49 42.04346 115.74343 30060 ft 449 kts 295°
2026-05-01 14:50 42.10305 115.59569 30051 ft 449 kts 294°
2026-05-01 14:51 42.14759 115.48467 30049 ft 449 kts 294°
2026-05-01 14:52 42.18705 115.38598 30061 ft 449 kts 294°
2026-05-01 14:53 42.22640 115.27222 30067 ft 445 kts 284°
2026-05-01 14:53 42.24085 115.19170 30060 ft 443 kts 278°
2026-05-01 14:54 42.24689 115.10818 30054 ft 442 kts 274°
2026-05-01 14:54 42.25214 115.02587 30070 ft 442 kts 274°
2026-05-01 14:55 42.25755 114.94318 30056 ft 443 kts 274°
2026-05-01 14:55 42.26300 114.86015 30061 ft 443 kts 274°
2026-05-01 14:56 42.26841 114.77715 30054 ft 443 kts 274°
2026-05-01 14:56 42.27375 114.69444 30053 ft 443 kts 275°
2026-05-01 14:57 42.27903 114.61167 30053 ft 443 kts 274°
2026-05-01 14:57 42.28686 114.48691 30059 ft 444 kts 274°
2026-05-01 14:58 42.29202 114.40362 30058 ft 444 kts 274°
2026-05-01 14:58 42.29710 114.32053 30048 ft 444 kts 274°
2026-05-01 14:59 42.30211 114.23781 30057 ft 444 kts 274°
2026-05-01 14:59 42.30708 114.15464 30045 ft 445 kts 274°
2026-05-01 15:00 42.31443 114.02956 30045 ft 445 kts 274°
2026-05-01 15:01 42.31924 113.94635 30043 ft 444 kts 274°
2026-05-01 15:01 42.32402 113.86275 30047 ft 445 kts 274°
2026-05-01 15:02 42.32873 113.77931 30050 ft 446 kts 274°
2026-05-01 15:02 42.33338 113.69592 30049 ft 446 kts 274°
2026-05-01 15:03 42.33795 113.61258 30052 ft 445 kts 274°
2026-05-01 15:03 42.34248 113.52930 30048 ft 446 kts 274°
2026-05-01 15:04 42.34698 113.44500 30146 ft 447 kts 273°
2026-05-01 15:04 42.34920 113.40311 30371 ft 446 kts 273°
2026-05-01 15:04 42.35139 113.36143 30691 ft 443 kts 273°
2026-05-01 15:04 42.35354 113.32024 31009 ft 439 kts 273°
2026-05-01 15:05 42.35568 113.27908 31317 ft 436 kts 273°
2026-05-01 15:05 42.35777 113.23844 31651 ft 432 kts 272°
2026-05-01 15:05 42.35983 113.19833 31983 ft 428 kts 272°
2026-05-01 15:06 42.36389 113.11797 32052 ft 426 kts 272°
2026-05-01 15:06 42.36787 113.03813 32051 ft 424 kts 272°
2026-05-01 15:07 42.37178 112.95857 32058 ft 422 kts 272°
2026-05-01 15:07 42.37560 112.87981 32062 ft 422 kts 272°
2026-05-01 15:08 42.37939 112.80053 32065 ft 423 kts 272°
2026-05-01 15:08 42.38314 112.72088 32066 ft 423 kts 272°
2026-05-01 15:09 42.38683 112.64127 32063 ft 423 kts 272°
2026-05-01 15:09 42.39046 112.56190 32063 ft 423 kts 272°
2026-05-01 15:10 42.39406 112.48216 32075 ft 423 kts 272°
2026-05-01 15:10 42.39931 112.36325 32071 ft 423 kts 271°
2026-05-01 15:11 42.40447 112.24354 32071 ft 423 kts 271°
2026-05-01 15:12 42.40781 112.16470 32073 ft 422 kts 271°
2026-05-01 15:12 42.41273 112.04544 32074 ft 423 kts 271°
2026-05-01 15:14 42.42069 111.84642 32070 ft 423 kts 271°
2026-05-01 15:14 42.42530 111.72697 32077 ft 424 kts 271°
2026-05-01 15:15 42.43127 111.56720 32076 ft 424 kts 271°
2026-05-01 15:16 42.43702 111.40747 32073 ft 425 kts 271°
2026-05-01 15:18 42.44391 111.20710 32080 ft 426 kts 271°
2026-05-01 15:19 42.44919 111.04638 32082 ft 427 kts 270°
2026-05-01 15:19 42.45299 110.92615 32077 ft 428 kts 270°
2026-05-01 15:20 42.45668 110.80527 32080 ft 429 kts 270°
2026-05-01 15:21 42.45908 110.72448 32096 ft 429 kts 270°
2026-05-01 15:21 42.46143 110.64364 32094 ft 429 kts 270°
2026-05-01 15:22 42.46483 110.52262 32102 ft 430 kts 270°
2026-05-01 15:22 42.46703 110.44153 32106 ft 430 kts 270°
2026-05-01 15:23 42.46918 110.36024 32109 ft 430 kts 270°
2026-05-01 15:23 42.47127 110.27915 32108 ft 431 kts 270°
2026-05-01 15:24 42.47332 110.19791 32115 ft 431 kts 269°
2026-05-01 15:24 42.47529 110.11687 32123 ft 430 kts 269°
2026-05-01 15:25 42.47721 110.03581 32110 ft 430 kts 269°
2026-05-01 15:25 42.47906 109.95526 32121 ft 431 kts 269°
2026-05-01 15:26 42.48087 109.87398 32135 ft 431 kts 269°
2026-05-01 15:26 42.48263 109.79270 32127 ft 432 kts 269°
2026-05-01 15:27 42.48431 109.71164 32136 ft 431 kts 269°
2026-05-01 15:28 42.48649 109.60310 32138 ft 432 kts 269°
2026-05-01 15:28 42.48805 109.52184 32139 ft 432 kts 268°
2026-05-01 15:29 42.49029 109.39929 32153 ft 431 kts 268°
2026-05-01 15:30 42.49306 109.23711 32164 ft 432 kts 268°
2026-05-01 15:31 42.49680 108.99289 32167 ft 433 kts 268°
2026-05-01 15:32 42.49901 108.82922 32169 ft 433 kts 268°
2026-05-01 15:34 42.50189 108.58398 32165 ft 435 kts 267°